Location: *
(40.4270°N, 9.4940°E)
Time: 20:07:51
(UTC+01:00)

Okean 2 - Visible Passes

Search period start: 26 February 2017 00:00
Search period end: 08 March 2017 00:00
Orbit: 562 x 579 km, 82.5° (Epoch: 26 February)

Date Brightness Start Highest point End Pass type
(mag) Time Alt. Az. Time Alt. Az. Time Alt. Az.
26 Feb 4.7 18:58:38 10° NNE 19:01:44 20° ENE 19:04:17 12° ESE visible
26 Feb 5.2 20:34:57 10° NNW 20:38:37 30° W 20:40:32 20° SW visible
27 Feb 4.4 19:00:25 10° NNE 19:03:55 25° ENE 19:07:24 10° SE visible
27 Feb 5.7 20:37:19 10° NW 20:40:38 23° W 20:43:57 10° SW visible
28 Feb 4.1 19:02:18 10° NNE 19:06:04 32° ENE 19:09:50 10° SE visible
28 Feb 6.1 20:39:47 10° NW 20:42:39 18° W 20:45:31 10° SW visible
01 Mar 3.8 19:04:14 10° N 19:08:13 42° ENE 19:12:10 10° SSE visible
01 Mar 6.5 20:42:25 10° NW 20:44:39 14° W 20:46:53 10° WSW visible
02 Mar 3.5 19:06:13 10° N 19:10:21 55° E 19:14:27 10° SSE visible
02 Mar 6.8 20:45:33 10° WNW 20:46:38 11° W 20:47:43 10° W visible
03 Mar 3.3 19:08:16 10° N 19:12:28 73° E 19:16:37 10° SSE visible
04 Mar 3.5 19:10:21 10° N 19:14:33 85° W 19:18:44 10° S visible
05 Mar 3.9 19:12:28 10° NNW 19:16:38 65° W 19:20:46 10° S visible
06 Mar 4.5 19:14:39 10° NNW 19:18:42 49° W 19:22:43 10° SSW visible
07 Mar 5.1 19:16:53 10° NNW 19:20:45 37° W 19:24:36 10° SSW visible
